Overview Statistics Trail Chart Weather Telemetry Raw packets
 

This is the latest recevied weather packets stored in our database for station/object W2SBL-1. If no packets are shown the sender has not sent any weather packets the latest 10 day(s).

<< 7 8 9 10 11 12 13 >>
Time Temp. Humidity Pressure Rain* Wind** Luminosity Snow
1788228792 25.56° C 55% 1017.7 hPa - - - -
1788227892 25.56° C 55% 1017.9 hPa - - - -
1788226992 25.56° C 55% 1018 hPa - - - -
1788226092 25.56° C 55% 1018 hPa - - - -
1788225192 25.56° C 55% 1017.9 hPa - - - -
1788224292 26.11° C 55% 1018 hPa - - - -
1788223392 26.11° C 55% 1018 hPa - - - -
1788222492 26.11° C 55% 1017.7 hPa - - - -
1788221592 26.11° C 55% 1017.8 hPa - - - -
1788220692 26.11° C 56% 1017.8 hPa - - - -
1788219791 26.11° C 56% 1018 hPa - - - -
1788218891 26.67° C 56% 1018 hPa - - - -
1788217991 26.67° C 56% 1018.4 hPa - - - -
1788217091 26.67° C 56% 1018.1 hPa - - - -
1788216191 17.78° C 55% 1003.1 hPa - - - -
1788215291 27.78° C 55% 1018.2 hPa - - - -
1788214391 28.33° C 54% 1018.2 hPa - - - -
1788213491 27.78° C 55% 1018.2 hPa - - - -
1788212591 27.78° C 56% 1018.3 hPa - - - -
1788211691 27.78° C 57% 1018.4 hPa - - - -
1788210791 28.33° C 56% 1018.1 hPa - - - -
1788209890 28.89° C 57% 1018.1 hPa - - - -
1788208990 29.44° C 56% 1018.5 hPa - - - -
1788208090 30.56° C 56% 1018.7 hPa - - - -
1788207190 32.22° C 54% 1018.8 hPa - - - -

* Rain since midnight (hover to see other rain measurements)
** Current wind speed in m/s (hover to see current wind gust speed)